KE9LZ-9 Weather Reports


Display with metric or nautical units.
time (UTC)temp
F
wind
direction
speed
MPH
gust
MPH
rain 1hr
in
rain 24hr
in
rain mn
in
humidity
%
barometer
mb
20260505070004 42 308 3.0 6.0 0.00 0.00 0.00 49 1002.9
20260505065003 42 304 3.0 6.0 0.00 0.00 0.00 49 1002.8
20260505064004 42 342 2.0 9.0 0.00 0.00 0.00 49 1002.7
20260505063004 43 334 3.0 9.0 0.00 0.00 0.00 48 1002.7
20260505061004 43 294 2.0 5.0 0.00 0.00 0.00 49 1002.8
20260505060004 44 278 1.0 7.0 0.00 0.00 0.00 48 1002.6
20260505055004 44 279 4.0 14.0 0.00 0.00 0.00 47 1002.5
20260505054004 44 265 3.0 15.0 0.00 0.00 0.00 47 1002.5
20260505053004 45 296 6.0 15.0 0.00 0.00 0.00 46 1002.4
20260505052003 45 319 3.0 10.0 0.00 0.00 0.00 48 1002.4
20260505051004 46 275 5.0 8.0 0.00 0.00 0.00 50 1002.1
20260505041003 47 17 3.0 13.0 0.00 0.00 0.00 51 1001.0
20260505040005 47 343 3.0 12.0 0.00 0.00 0.00 50 1000.5
20260505035004 47 4 1.0 5.0 0.00 0.00 0.00 49 1000.2
20260505034004 48 310 3.0 7.0 0.00 0.00 0.00 48 1000.1
20260505031004 49 338 2.0 12.0 0.00 0.00 0.00 49 999.9
20260505030004 49 342 2.0 7.0 0.00 0.00 0.00 48 999.8
20260505024004 50 0 1.0 6.0 0.00 0.00 0.00 48 999.8
20260505023004 51 86 2.0 10.0 0.00 0.00 0.00 47 999.3
20260505022003 51 332 3.0 12.0 0.00 0.00 0.00 48 999.3
20260505021004 52 351 2.0 10.0 0.00 0.00 0.00 47 999.1
20260505020004 53 329 3.0 12.0 0.00 0.00 0.00 46 998.8
20260505015004 53 16 2.0 9.0 0.00 0.00 0.00 46 998.3
20260505013004 55 343 5.0 10.0 0.00 0.00 0.00 44 997.9
20260505012004 56 6 2.0 7.0 0.00 0.00 0.00 44 997.7
20260505011004 57 341 5.0 7.0 0.00 0.00 0.00 43 997.4
20260505004003 61 329 2.0 16.0 0.00 0.00 0.00 38 996.3
20260505002004 62 309 5.0 10.0 0.00 0.00 0.00 35 995.7
20260505001003 63 321 5.0 23.0 0.00 0.00 0.00 35 995.5
20260505000004 63 321 5.0 15.0 0.00 0.00 0.00 34 995.5
20260504235003 64 270 7.0 14.0 0.00 0.00 0.00 33 995.5
20260504234004 64 307 5.0 15.0 0.00 0.00 0.00 33 995.4
20260504233004 65 267 9.0 17.0 0.00 0.00 0.00 32 995.2
20260504231004 66 318 7.0 17.0 0.00 0.00 0.00 30 995.0
20260504230004 67 327 6.0 16.0 0.00 0.00 0.00 29 994.9
20260504225004 66 284 8.0 25.0 0.00 0.00 0.00 30 995.1
20260504221004 68 289 4.0 14.0 0.00 0.00 0.00 29 994.4
20260504220004 70 278 7.0 20.0 0.00 0.00 0.00 26 994.3
20260504215004 68 257 4.0 13.0 0.00 0.00 0.00 27 994.1
20260504214003 68 278 5.0 21.0 0.00 0.00 0.00 27 994.0
20260504213004 69 283 9.0 17.0 0.00 0.00 0.00 26 993.8
20260504212004 70 17 4.0 18.0 0.00 0.01 0.00 25 993.4
20260504211004 70 278 6.0 15.0 0.00 0.01 0.00 24 993.4
20260504210004 71 277 9.0 20.0 0.00 0.01 0.00 27 993.4
20260504205004 71 248 7.0 20.0 0.00 0.01 0.00 27 993.0
20260504204004 71 282 5.0 22.0 0.00 0.01 0.00 28 993.1
20260504203004 71 284 6.0 22.0 0.00 0.01 0.00 29 993.1
20260504202004 71 258 6.0 17.0 0.00 0.01 0.00 26 993.1
20260504201004 70 260 10.0 24.0 0.00 0.01 0.00 25 993.1
20260504200004 71 266 12.0 26.0 0.00 0.01 0.00 24 993.3
20260504195004 72 259 10.0 22.0 0.00 0.01 0.00 24 993.0
20260504194004 72 249 9.0 26.0 0.00 0.01 0.00 25 992.9
20260504193005 72 265 6.0 23.0 0.00 0.01 0.00 30 992.8
20260504185004 72 263 10.0 24.0 0.00 0.01 0.00 32 992.4
20260504184004 73 305 6.0 29.0 0.00 0.01 0.00 33 992.6
20260504183003 72 273 6.0 16.0 0.00 0.01 0.00 35 992.5
20260504182003 72 259 7.0 22.0 0.00 0.01 0.00 35 992.4
20260504181004 72 282 10.0 25.0 0.00 0.01 0.00 34 992.4
20260504180004 72 258 9.0 22.0 0.00 0.01 0.00 35 992.2
20260504175003 71 261 12.0 22.0 0.00 0.01 0.00 36 992.3
20260504174004 71 263 6.0 21.0 0.00 0.01 0.00 36 992.5
20260504173004 72 259 7.0 23.0 0.00 0.01 0.00 36 992.5
20260504172004 71 282 8.0 20.0 0.00 0.01 0.00 37 992.6
20260504171004 71 259 9.0 20.0 0.00 0.01 0.00 36 992.6
20260504151004 67 250 6.0 17.0 0.00 0.01 0.00 38 992.6
20260504141004 58 255 5.0 10.0 0.00 0.01 0.00 49 994.2
20260504081004 38 59 0.0 2.0 0.00 0.01 0.00 92 1000.1